Location: LewisvilleTX
(33.0462°N, 96.9942°W)
Time: 01:27:43
(UTC+00:00)

X-37B - Pass Details

Date: 04 December 2022
Orbit: 277 x 277 km, 45.0° (Epoch: 01 November)

Event Time Altitude Azimuth Distance (km) Brightness Sun altitude
Rises 00:56:32 0° 220° (SW) 1,898 5.0 -19.6°
Reaches altitude 10° 00:58:31 10° 210° (SSW) 1,090 3.4 -20.0°
Enters shadow 00:59:20 18° 200° (SSW) 782 2.5 -20.2°
